History for Miami, FL

Wednesday, November 21, 2012 — View Current Conditions

Jump to Data:

Date:
Airport Code:
Recently Viewed Airport Codes: KMIA
Daily Summary
  Actual Average Record
Temperature
Mean Temperature 69°F 74°F  
Max Temperature 77°F 81°F 87°F (1986)
Min Temperature 61°F 67°F 36°F (1914)
Degree Days
Heating Degree Days 0 0  
Month to date heating degree days 1 0  
Since 1 July heating degree days 1 0  
Cooling Degree Days 4 9  
Month to date cooling degree days 153 223  
Year to date cooling degree days 4392 4295  
Growing Degree Days 19 (Base 50)    
Moisture
Dew Point 56°F    
Average Humidity 68    
Maximum Humidity 90    
Minimum Humidity 46    
Precipitation
Precipitation 0.00 in 0.09 in 7.68 in (1912)
Month to date precipitation 0.24 2.50  
Year to date precipitation 86.17 59.09  
Snow
Snow 0.00 in in in ()
Month to date snowfall 0.0  
Since 1 July snowfall 0.0  
Since 1 September snowfall 0.0  
Snow Depth 0.00 in    
Sea Level Pressure
Sea Level Pressure 29.99 in    
Wind
Wind Speed 8 mph (NW)    
Max Wind Speed 15 mph    
Max Gust Speed 24 mph    
Visibility 10 miles    
Events      
T = Trace of Precipitation, MM = Missing Value Source: NWS Daily Summary

Show full METARS

(help) - Comma Delimited File

Hourly Observations

Time(EST) Temperature Dew Point Humidity Sea Level Pressure Visibility Wind Direction Wind Speed Gust Speed Precipitation Events Conditions
12:53 AM 66.0°F 59.0°F 78% 29.98 in 10.0 miles NNW 6.9 mph - N/A   Overcast
1:53 AM 64.9°F 59.0°F 81% 29.97 in 10.0 miles NNW 4.6 mph - N/A   Scattered Clouds
2:53 AM 63.0°F 59.0°F 87% 29.96 in 10.0 miles NW 4.6 mph - N/A   Scattered Clouds
3:53 AM 62.1°F 59.0°F 90% 29.96 in 10.0 miles NNW 6.9 mph - N/A   Clear
4:53 AM 63.0°F 57.9°F 84% 29.97 in 10.0 miles NNW 8.1 mph - N/A   Overcast
5:53 AM 62.1°F 57.9°F 86% 29.98 in 10.0 miles NW 4.6 mph - N/A   Partly Cloudy
6:53 AM 61.0°F 57.9°F 90% 30.00 in 10.0 miles NW 5.8 mph - N/A   Partly Cloudy
7:53 AM 64.0°F 59.0°F 84% 30.00 in 10.0 miles NW 4.6 mph - N/A   Partly Cloudy
8:53 AM 66.0°F 59.0°F 78% 30.01 in 10.0 miles NW 8.1 mph 19.6 mph N/A   Partly Cloudy
9:53 AM 69.1°F 60.1°F 73% 30.02 in 10.0 miles NW 9.2 mph - N/A   Partly Cloudy
10:53 AM 72.0°F 60.1°F 66% 30.00 in 10.0 miles NW 11.5 mph - N/A   Partly Cloudy
11:53 AM 73.9°F 60.1°F 62% 29.99 in 10.0 miles NW 11.5 mph 18.4 mph N/A   Partly Cloudy
12:53 PM 75.9°F 60.1°F 58% 29.96 in 10.0 miles NW 8.1 mph 17.3 mph N/A   Scattered Clouds
1:53 PM 77.0°F 57.9°F 52% 29.94 in 10.0 miles NW 9.2 mph 19.6 mph N/A   Scattered Clouds
2:53 PM 75.9°F 55.0°F 48% 29.94 in 10.0 miles NW 9.2 mph 20.7 mph N/A   Scattered Clouds
3:53 PM 75.0°F 54.0°F 48% 29.94 in 10.0 miles NW 9.2 mph 20.7 mph N/A   Scattered Clouds
4:53 PM 73.0°F 51.1°F 46% 29.95 in 10.0 miles NW 10.4 mph 19.6 mph N/A   Scattered Clouds
5:53 PM 70.0°F 51.1°F 51% 29.97 in 10.0 miles NNW 9.2 mph - N/A   Scattered Clouds
6:53 PM 68.0°F 51.1°F 55% 29.99 in 10.0 miles NW 8.1 mph - N/A   Clear
7:53 PM 66.9°F 48.9°F 52% 30.01 in 10.0 miles NNW 6.9 mph - N/A   Clear
8:53 PM 66.0°F 50.0°F 56% 30.03 in 10.0 miles NNW 11.5 mph 17.3 mph N/A   Clear
9:53 PM 64.9°F 48.0°F 54% 30.04 in 10.0 miles North 9.2 mph - N/A   Clear
10:53 PM 64.0°F 46.9°F 54% 30.04 in 10.0 miles North 9.2 mph - N/A   Clear
11:53 PM 63.0°F 46.0°F 54% 30.04 in 10.0 miles NNW 6.9 mph - N/A   Clear